Starlink 30563

operational
NORAD ID: 58042 Int'l Des: 2023-156 Owner: SPXS Country: US Constellation: starlink
LEOCIRCULAR

Über Starlink 30563

Beschreibung wird geladen...

Live-Position

3D-Globus wird geladen...

Nächste Überflüge

Höhenverlauf

Altitude vs Time

uPlot chart will show altitude changes over time

Zweizeiliger Elementsatz

1 58042U 23156Q 25350.30273190 .00001589 00000-0 65797-4 0 9997
2 58042 53.1593 103.0847 0001226 93.7954 266.3187 15.30186618123589
Epoch: 16. Dez. 2025 • Age: 21 hours

Aktueller Status

Höhe 478.6 km
Geschwindigkeit 7.63 km/s
Subsatellitenpunkt 42.56°N, 87.16°E
Startdatum 9. Okt. 2023
Alter 2.1 years
Typ internet

Technische Details

Klassifizierung Payload
Masse 730.00 kg
Trockenmasse 700.00 kg
Gesamtmasse 730.00 kg
Länge 0.30 m
Durchmesser 4.10 m
Spannweite 29.00 m
Form Box + pan
Hersteller SPXS
Bus-Typ Starlink V2M
Phasenstatus In Orbit
Besitzer/Staat SPXS/US

Große Konstellationen

Loading constellations...